^^
Saratoga-Weather Station Historical Data
Daily Summary for January 27, 2022 Units:  Metric    English   Both
Daily Weekly Monthly Yearly Custom
  High: Low: Average:
Temperature: 2.1 °C -0.5 °C 0.7 °C
Dew Point: 1.4 °C -1.3 °C -0.1 °C
Humidity: 95% 93% 94%
Wind Speed: 19.5km/h 0km/h 4.4km/h
Wind Gust: 22.5km/h - -
Wind- - West
Pressure: 1032.2 hPa 1027.8 hPa -
Precipitation: 0.2 mm    
Historical Graphs
 
 
Tabular Data for January 27, 2022
Time Temperature Dew Point Pressure Wind Wind Speed Wind Gust Humidity Rainfall Rate (Hourly) solar
00:01 -0.2 °C -1 °C 1032.2 hPa WSW 6.4 km/h 6.4 km/h 94% 0.0 mm 0 W/m2
00:06 -0.2 °C -1 °C 1032.2 hPa WNW 3.2 km/h 4.8 km/h 94% 0.0 mm 0 W/m2
00:11 -0.2 °C -1 °C 1032.2 hPa WNW 3.2 km/h 3.2 km/h 94% 0.0 mm 0 W/m2
00:16 -0.2 °C -1 °C 1032.2 hPa West 1.4 km/h 6.4 km/h 94% 0.0 mm 0 W/m2
00:21 -0.2 °C -1 °C 1032.2 hPa West 4.7 km/h 6.4 km/h 94% 0.0 mm 0 W/m2
00:26 -0.2 °C -1 °C 1032.2 hPa WNW 1.4 km/h 6.4 km/h 94% 0.0 mm 0 W/m2
00:31 -0.2 °C -1 °C 1032.2 hPa West 3.2 km/h 6.4 km/h 94% 0.0 mm 0 W/m2
00:36 -0.2 °C -1 °C 1032.2 hPa NW 4.7 km/h 11.3 km/h 94% 0.0 mm 0 W/m2
00:41 -0.2 °C -1 °C 1032.2 hPa WSW 6.4 km/h 6.4 km/h 94% 0.0 mm 0 W/m2
00:46 -0.2 °C -1 °C 1032.2 hPa NW 6.4 km/h 9.7 km/h 94% 0.0 mm 0 W/m2
00:52 -0.2 °C -1 °C 1031.8 hPa WSW 6.4 km/h 11.3 km/h 94% 0.0 mm 0 W/m2
00:57 -0.2 °C -1 °C 1031.8 hPa West 9.7 km/h 12.9 km/h 94% 0.0 mm 0 W/m2
01:02 -0.2 °C -1 °C 1031.8 hPa WNW 3.2 km/h 4.8 km/h 94% 0.0 mm 0 W/m2
01:07 -0.2 °C -1 °C 1031.8 hPa NW 3.2 km/h 6.4 km/h 94% 0.0 mm 0 W/m2
01:12 -0.1 °C -0.9 °C 1031.5 hPa NNW 3.2 km/h 6.4 km/h 94% 0.0 mm 0 W/m2
01:17 -0.1 °C -0.9 °C 1031.5 hPa WSW 3.2 km/h 4.8 km/h 94% 0.0 mm 0 W/m2
01:22 -0.1 °C -0.9 °C 1031.5 hPa NW 4.7 km/h 8 km/h 94% 0.0 mm 0 W/m2
01:27 -0.1 °C -0.9 °C 1031.5 hPa Calm   3.2 km/h 94% 0.0 mm 0 W/m2
01:32 -0.1 °C -0.9 °C 1031.5 hPa West 1.4 km/h 6.4 km/h 94% 0.0 mm 0 W/m2
01:37 -0.1 °C -0.9 °C 1031.2 hPa West 1.4 km/h 6.4 km/h 94% 0.0 mm 0 W/m2
01:42 -0.1 °C -0.9 °C 1031.5 hPa WNW 3.2 km/h 12.9 km/h 94% 0.0 mm 0 W/m2
01:47 -0.1 °C -0.9 °C 1031.5 hPa West 3.2 km/h 4.8 km/h 94% 0.0 mm 0 W/m2
01:52 -0.1 °C -0.9 °C 1031.5 hPa West 4.7 km/h 12.9 km/h 94% 0.0 mm 0 W/m2
01:57 -0.1 °C -0.9 °C 1031.2 hPa West 1.4 km/h 9.7 km/h 94% 0.0 mm 0 W/m2
02:02 -0.1 °C -0.9 °C 1031.5 hPa West 4.7 km/h 6.4 km/h 94% 0.0 mm 0 W/m2
02:07 -0.1 °C -0.9 °C 1031.5 hPa NW 9.7 km/h 16.1 km/h 94% 0.0 mm 0 W/m2
02:12 -0.1 °C -0.9 °C 1031.5 hPa NW 1.4 km/h 6.4 km/h 94% 0.0 mm 0 W/m2
02:17 -0.1 °C -0.9 °C 1031.5 hPa WNW 1.4 km/h 3.2 km/h 94% 0.0 mm 0 W/m2
02:22 -0.1 °C -0.9 °C 1031.5 hPa SW 6.4 km/h 6.4 km/h 94% 0.0 mm 0 W/m2
02:27 -0.1 °C -0.9 °C 1031.5 hPa WNW 7.9 km/h 11.3 km/h 94% 0.0 mm 0 W/m2
02:32 -0.1 °C -0.9 °C 1031.5 hPa NW 4.7 km/h 14.5 km/h 94% 0.0 mm 0 W/m2
02:37 -0.1 °C -0.9 °C 1031.5 hPa West 9.7 km/h 12.9 km/h 94% 0.0 mm 0 W/m2
02:42 -0.1 °C -0.9 °C 1031.5 hPa WNW 3.2 km/h 9.7 km/h 94% 0.0 mm 0 W/m2
02:47 -0.1 °C -0.9 °C 1031.5 hPa West 3.2 km/h 4.8 km/h 94% 0.0 mm 0 W/m2
02:52 0 °C -0.8 °C 1031.5 hPa NW 3.2 km/h 9.7 km/h 94% 0.0 mm 0 W/m2
02:57 0 °C -0.8 °C 1031.2 hPa SW 7.9 km/h 8 km/h 94% 0.0 mm 0 W/m2
03:02 0 °C -0.8 °C 1031.2 hPa West 4.7 km/h 9.7 km/h 94% 0.0 mm 0 W/m2
03:07 0.1 °C -0.8 °C 1031.2 hPa WNW 1.4 km/h 6.4 km/h 94% 0.0 mm 0 W/m2
03:12 0.1 °C -0.9 °C 1031.2 hPa NW 3.2 km/h 4.8 km/h 93% 0.0 mm 0 W/m2
03:17 0.1 °C -0.9 °C 1031.2 hPa WNW 6.4 km/h 12.9 km/h 93% 0.0 mm 0 W/m2
03:22 0.1 °C -0.9 °C 1031.5 hPa WNW 1.4 km/h 8 km/h 93% 0.0 mm 0 W/m2
03:27 0.1 °C -0.9 °C 1031.5 hPa WNW 3.2 km/h 6.4 km/h 93% 0.0 mm 0 W/m2
03:32 0.2 °C -0.8 °C 1031.5 hPa West 6.4 km/h 9.7 km/h 93% 0.0 mm 0 W/m2
03:37 0.1 °C -0.9 °C 1031.2 hPa WSW 7.9 km/h 9.7 km/h 93% 0.0 mm 0 W/m2
03:42 0.1 °C -0.9 °C 1031.2 hPa WNW 3.2 km/h 4.8 km/h 93% 0.0 mm 0 W/m2
03:47 0.1 °C -0.9 °C 1031.2 hPa West 6.4 km/h 14.5 km/h 93% 0.0 mm 0 W/m2
03:52 0.1 °C -0.9 °C 1031.2 hPa West 3.2 km/h 12.9 km/h 93% 0.0 mm 0 W/m2
03:57 0.1 °C -0.9 °C 1031.2 hPa West 3.2 km/h 16.1 km/h 93% 0.0 mm 0 W/m2
04:02 0.1 °C -0.9 °C 1031.2 hPa West 3.2 km/h 9.7 km/h 93% 0.0 mm 0 W/m2
04:07 0.1 °C -0.9 °C 1031.2 hPa WNW 6.4 km/h 16.1 km/h 93% 0.0 mm 0 W/m2
04:12 0.1 °C -0.9 °C 1031.2 hPa West 17.7 km/h 19.3 km/h 93% 0.0 mm 0 W/m2
04:17 0.1 °C -0.9 °C 1031.2 hPa West 3.2 km/h 14.5 km/h 93% 0.0 mm 0 W/m2
04:22 0.1 °C -0.9 °C 1030.8 hPa NNW 13 km/h 19.3 km/h 93% 0.0 mm 0 W/m2
04:27 0.1 °C -0.9 °C 1030.8 hPa WSW 4.7 km/h 16.1 km/h 93% 0.0 mm 0 W/m2
04:32 0.1 °C -0.9 °C 1031.2 hPa West 13 km/h 16.1 km/h 93% 0.0 mm 0 W/m2
04:37 0.1 °C -0.9 °C 1031.2 hPa West 9.7 km/h 17.7 km/h 93% 0.0 mm 0 W/m2
04:42 0.1 °C -0.9 °C 1030.8 hPa West 11.1 km/h 11.3 km/h 93% 0.0 mm 0 W/m2
04:47 0.1 °C -0.9 °C 1030.5 hPa NW 6.4 km/h 17.7 km/h 93% 0.0 mm 0 W/m2
04:52 0.1 °C -0.9 °C 1030.5 hPa West 3.2 km/h 6.4 km/h 93% 0.0 mm 0 W/m2
04:57 0.1 °C -0.9 °C 1030.5 hPa West 1.4 km/h 14.5 km/h 93% 0.0 mm 0 W/m2
05:02 0.1 °C -0.9 °C 1030.5 hPa WSW 6.4 km/h 11.3 km/h 93% 0.0 mm 0 W/m2
05:07 0.1 °C -0.8 °C 1030.5 hPa West 3.2 km/h 16.1 km/h 94% 0.0 mm 0 W/m2
05:12 0.1 °C -0.8 °C 1030.5 hPa West 4.7 km/h 4.8 km/h 94% 0.0 mm 0 W/m2
05:17 0.1 °C -0.8 °C 1030.5 hPa WSW 4.7 km/h 16.1 km/h 94% 0.0 mm 0 W/m2
05:22 0 °C -0.8 °C 1030.5 hPa Calm   3.2 km/h 94% 0.0 mm 0 W/m2
05:27 0 °C -0.8 °C 1030.5 hPa WNW 1.4 km/h 4.8 km/h 94% 0.0 mm 0 W/m2
05:32 0 °C -0.8 °C 1030.5 hPa Calm   3.2 km/h 94% 0.0 mm 0 W/m2
05:37 0 °C -0.8 °C 1030.5 hPa Calm   4.8 km/h 94% 0.0 mm 0 W/m2
05:42 0 °C -0.8 °C 1030.5 hPa Calm   3.2 km/h 94% 0.0 mm 0 W/m2
05:47 0 °C -0.8 °C 1030.5 hPa West 1.4 km/h 3.2 km/h 94% 0.0 mm 0 W/m2
05:52 -0.1 °C -0.9 °C 1030.5 hPa Calm   1.6 km/h 94% 0.0 mm 0 W/m2
05:57 -0.1 °C -0.9 °C 1030.5 hPa North 3.2 km/h 3.2 km/h 94% 0.0 mm 0 W/m2
06:02 -0.1 °C -0.9 °C 1030.5 hPa WNW 3.2 km/h 8 km/h 94% 0.0 mm 0 W/m2
06:07 -0.1 °C -0.9 °C 1030.5 hPa South 3.2 km/h 6.4 km/h 94% 0.0 mm 0 W/m2
06:12 -0.1 °C -0.9 °C 1030.5 hPa West 3.2 km/h 8 km/h 94% 0.0 mm 0 W/m2
06:17 -0.2 °C -1 °C 1030.5 hPa SW 4.7 km/h 9.7 km/h 94% 0.0 mm 0 W/m2
06:22 -0.2 °C -1 °C 1030.1 hPa WNW 3.2 km/h 3.2 km/h 94% 0.0 mm 0 W/m2
06:27 -0.2 °C -1 °C 1030.1 hPa SE 1.4 km/h 4.8 km/h 94% 0.0 mm 0 W/m2
06:32 -0.3 °C -1.1 °C 1030.1 hPa NW 3.2 km/h 8 km/h 94% 0.0 mm 0 W/m2
06:37 -0.3 °C -1.1 °C 1030.1 hPa Calm   3.2 km/h 94% 0.0 mm 0 W/m2
06:42 -0.3 °C -1.1 °C 1030.5 hPa Calm   8 km/h 94% 0.0 mm 0 W/m2
06:47 -0.3 °C -1.1 °C 1030.5 hPa Calm   3.2 km/h 94% 0.0 mm 0 W/m2
06:52 -0.3 °C -1.1 °C 1030.1 hPa NW 1.4 km/h 8 km/h 94% 0.0 mm 0 W/m2
06:57 -0.4 °C -1.2 °C 1030.1 hPa West 4.7 km/h 6.4 km/h 94% 0.0 mm 0 W/m2
07:02 -0.4 °C -1.2 °C 1030.1 hPa Calm   1.6 km/h 94% 0.0 mm 0 W/m2
07:07 -0.4 °C -1.1 °C 1030.1 hPa SE 3.2 km/h 6.4 km/h 95% 0.0 mm 0 W/m2
07:12 -0.4 °C -1.2 °C 1030.1 hPa North 1.4 km/h 8 km/h 94% 0.0 mm 0 W/m2
07:17 -0.5 °C -1.3 °C 1030.1 hPa ESE 3.2 km/h 3.2 km/h 94% 0.0 mm 0 W/m2
07:22 -0.5 °C -1.3 °C 1030.1 hPa Calm   3.2 km/h 94% 0.0 mm 0 W/m2
07:27 -0.5 °C -1.3 °C 1030.1 hPa Calm   4.8 km/h 94% 0.0 mm 0 W/m2
07:32 -0.5 °C -1.3 °C 1030.1 hPa Calm   4.8 km/h 94% 0.0 mm 0 W/m2
07:37 -0.5 °C -1.3 °C 1030.1 hPa NW 3.2 km/h 3.2 km/h 94% 0.0 mm 0 W/m2
07:42 -0.5 °C -1.3 °C 1030.1 hPa NW 3.2 km/h 3.2 km/h 94% 0.0 mm 0 W/m2
07:47 -0.5 °C -1.3 °C 1030.1 hPa North 3.2 km/h 3.2 km/h 94% 0.0 mm 0 W/m2
07:52 -0.5 °C -1.3 °C 1030.1 hPa WSW 6.4 km/h 11.3 km/h 94% 0.0 mm 0 W/m2
07:57 -0.5 °C -1.3 °C 1030.1 hPa NW 3.2 km/h 3.2 km/h 94% 0.0 mm 0 W/m2
08:02 -0.5 °C -1.3 °C 1030.1 hPa WNW 6.4 km/h 6.4 km/h 94% 0.0 mm 0 W/m2
08:07 -0.5 °C -1.3 °C 1030.1 hPa Calm   3.2 km/h 94% 0.0 mm 0 W/m2
08:12 -0.5 °C -1.3 °C 1030.1 hPa North 1.4 km/h 3.2 km/h 94% 0.0 mm 0 W/m2
08:17 -0.4 °C -1.2 °C 1030.1 hPa Calm   3.2 km/h 94% 0.0 mm 0 W/m2
08:22 -0.4 °C -1.2 °C 1030.5 hPa West 4.7 km/h 12.9 km/h 94% 0.0 mm 0 W/m2
08:27 -0.4 °C -1.2 °C 1030.5 hPa Calm   3.2 km/h 94% 0.0 mm 0 W/m2
08:32 -0.4 °C -1.1 °C 1030.5 hPa NW 3.2 km/h 12.9 km/h 95% 0.0 mm 0 W/m2
08:37 -0.4 °C -1.1 °C 1030.5 hPa SW 3.2 km/h 4.8 km/h 95% 0.0 mm 0 W/m2
08:42 -0.4 °C -1.2 °C 1030.1 hPa NW 3.2 km/h 6.4 km/h 94% 0.0 mm 5 W/m2
08:47 -0.3 °C -1 °C 1030.1 hPa WSW 7.9 km/h 9.7 km/h 95% 0.0 mm 5 W/m2
08:52 -0.3 °C -1 °C 1030.1 hPa NNE 1.4 km/h 6.4 km/h 95% 0.0 mm 7 W/m2
08:57 -0.3 °C -1 °C 1030.1 hPa West 3.2 km/h 6.4 km/h 95% 0.0 mm 7 W/m2
09:02 -0.3 °C -1 °C 1030.1 hPa NNW 1.4 km/h 4.8 km/h 95% 0.0 mm 7 W/m2
09:07 -0.3 °C -1 °C 1030.1 hPa SW 1.4 km/h 12.9 km/h 95% 0.0 mm 9 W/m2
09:12 -0.3 °C -1 °C 1030.1 hPa NW 1.4 km/h 4.8 km/h 95% 0.0 mm 11 W/m2
09:17 -0.2 °C -0.9 °C 1030.1 hPa NW 1.4 km/h 12.9 km/h 95% 0.0 mm 12 W/m2
09:22 -0.2 °C -0.9 °C 1030.1 hPa SE 1.4 km/h 4.8 km/h 95% 0.0 mm 12 W/m2
09:27 -0.2 °C -0.9 °C 1030.1 hPa WSW 4.7 km/h 4.8 km/h 95% 0.0 mm 12 W/m2
09:32 -0.2 °C -0.9 °C 1030.1 hPa West 1.4 km/h 3.2 km/h 95% 0.0 mm 19 W/m2
09:37 -0.2 °C -0.9 °C 1029.8 hPa West 1.4 km/h 4.8 km/h 95% 0.0 mm 21 W/m2
09:42 -0.2 °C -0.9 °C 1029.8 hPa Calm   6.4 km/h 95% 0.0 mm 19 W/m2
09:47 -0.2 °C -0.9 °C 1030.1 hPa NNW 3.2 km/h 3.2 km/h 95% 0.0 mm 14 W/m2
09:52 -0.1 °C -0.8 °C 1030.1 hPa NNW 1.4 km/h 3.2 km/h 95% 0.0 mm 14 W/m2
09:57 -0.1 °C -0.8 °C 1029.8 hPa WSW 1.4 km/h 9.7 km/h 95% 0.0 mm 18 W/m2
10:02 -0.1 °C -0.8 °C 1029.8 hPa NNW 3.2 km/h 8 km/h 95% 0.0 mm 21 W/m2
10:08 -0.1 °C -0.8 °C 1029.8 hPa WNW 1.4 km/h 9.7 km/h 95% 0.0 mm 21 W/m2
10:13 -0.1 °C -0.8 °C 1029.8 hPa WNW 3.2 km/h 6.4 km/h 95% 0.0 mm 26 W/m2
10:18 -0.1 °C -0.8 °C 1030.1 hPa WNW 3.2 km/h 12.9 km/h 95% 0.0 mm 26 W/m2
10:23 0 °C -0.7 °C 1030.1 hPa NNW 4.7 km/h 6.4 km/h 95% 0.0 mm 30 W/m2
10:28 0 °C -0.7 °C 1030.1 hPa West 9.7 km/h 9.7 km/h 95% 0.0 mm 33 W/m2
10:33 0 °C -0.8 °C 1030.1 hPa WSW 3.2 km/h 4.8 km/h 94% 0.0 mm 35 W/m2
10:38 0.1 °C -0.8 °C 1030.1 hPa Calm   3.2 km/h 94% 0.0 mm 33 W/m2
10:43 0.1 °C -0.8 °C 1030.1 hPa WNW 1.4 km/h 3.2 km/h 94% 0.0 mm 35 W/m2
10:48 0.1 °C -0.8 °C 1030.1 hPa North 6.4 km/h 6.4 km/h 94% 0.0 mm 39 W/m2
10:53 0.1 °C -0.8 °C 1029.8 hPa West 3.2 km/h 4.8 km/h 94% 0.0 mm 53 W/m2
10:58 0.2 °C -0.7 °C 1029.8 hPa Calm   3.2 km/h 94% 0.0 mm 60 W/m2
11:03 0.2 °C -0.7 °C 1029.8 hPa Calm   3.2 km/h 94% 0.0 mm 60 W/m2
11:08 0.2 °C -0.7 °C 1029.8 hPa NW 4.7 km/h 9.7 km/h 94% 0.0 mm 53 W/m2
11:13 0.3 °C -0.6 °C 1030.1 hPa SSW 1.4 km/h 14.5 km/h 94% 0.0 mm 58 W/m2
11:18 0.3 °C -0.6 °C 1029.8 hPa WSW 4.7 km/h 17.7 km/h 94% 0.0 mm 70 W/m2
11:23 0.3 °C -0.6 °C 1029.5 hPa WSW 4.7 km/h 11.3 km/h 94% 0.0 mm 84 W/m2
11:28 0.4 °C -0.5 °C 1029.8 hPa WNW 11.1 km/h 16.1 km/h 94% 0.0 mm 102 W/m2
11:33 0.4 °C -0.5 °C 1029.5 hPa NW 4.7 km/h 11.3 km/h 94% 0.0 mm 114 W/m2
11:38 0.5 °C -0.4 °C 1029.5 hPa SW 3.2 km/h 9.7 km/h 94% 0.0 mm 79 W/m2
11:43 0.5 °C -0.4 °C 1029.8 hPa WSW 3.2 km/h 11.3 km/h 94% 0.0 mm 72 W/m2
11:48 0.6 °C -0.3 °C 1029.8 hPa East 1.4 km/h 11.3 km/h 94% 0.0 mm 74 W/m2
11:53 0.6 °C -0.3 °C 1029.5 hPa SW 6.4 km/h 11.3 km/h 94% 0.0 mm 107 W/m2
11:58 0.6 °C -0.3 °C 1029.8 hPa WNW 3.2 km/h 12.9 km/h 94% 0.0 mm 95 W/m2
12:03 0.7 °C -0.2 °C 1029.8 hPa West 1.4 km/h 9.7 km/h 94% 0.0 mm 83 W/m2
12:08 0.7 °C -0.2 °C 1029.8 hPa WNW 13 km/h 14.5 km/h 94% 0.0 mm 72 W/m2
12:13 0.7 °C -0.3 °C 1029.8 hPa West 3.2 km/h 14.5 km/h 93% 0.0 mm 88 W/m2
12:18 0.8 °C -0.1 °C 1029.5 hPa SW 3.2 km/h 8 km/h 94% 0.0 mm 98 W/m2
12:23 0.8 °C -0.2 °C 1029.5 hPa NNW 6.4 km/h 8 km/h 93% 0.0 mm 113 W/m2
12:28 0.8 °C -0.1 °C 1029.5 hPa WNW 3.2 km/h 16.1 km/h 94% 0.0 mm 116 W/m2
12:33 0.9 °C 0 °C 1029.1 hPa WNW 6.4 km/h 19.3 km/h 94% 0.0 mm 121 W/m2
12:38 0.9 °C 0 °C 1029.1 hPa NNW 4.7 km/h 8 km/h 94% 0.0 mm 120 W/m2
12:43 0.9 °C 0 °C 1029.5 hPa NW 13 km/h 19.3 km/h 94% 0.0 mm 128 W/m2
12:48 0.9 °C 0 °C 1029.5 hPa WNW 1.4 km/h 6.4 km/h 94% 0.0 mm 97 W/m2
12:53 1 °C 0.1 °C 1029.1 hPa NW 4.7 km/h 17.7 km/h 94% 0.0 mm 84 W/m2
12:58 1 °C 0.1 °C 1029.1 hPa West 1.4 km/h 11.3 km/h 94% 0.0 mm 91 W/m2
13:03 1 °C 0.1 °C 1029.1 hPa WNW 4.7 km/h 17.7 km/h 94% 0.0 mm 132 W/m2
13:08 1 °C 0.1 °C 1028.8 hPa NW 4.7 km/h 12.9 km/h 94% 0.0 mm 142 W/m2
13:13 1.1 °C 0.2 °C 1028.8 hPa SSW 6.4 km/h 17.7 km/h 94% 0.0 mm 155 W/m2
13:18 1.2 °C 0.3 °C 1028.8 hPa North 6.4 km/h 6.4 km/h 94% 0.0 mm 155 W/m2
13:23 1.2 °C 0.3 °C 1028.8 hPa NW 1.4 km/h 6.4 km/h 94% 0.0 mm 218 W/m2
13:28 1.3 °C 0.4 °C 1028.8 hPa WNW 6.4 km/h 12.9 km/h 94% 0.0 mm 216 W/m2
13:33 1.3 °C 0.4 °C 1028.5 hPa NW 1.4 km/h 14.5 km/h 94% 0.0 mm 169 W/m2
13:38 1.3 °C 0.4 °C 1028.8 hPa NW 1.4 km/h 3.2 km/h 94% 0.0 mm 83 W/m2
13:43 1.3 °C 0.4 °C 1028.5 hPa Calm   14.5 km/h 94% 0.0 mm 54 W/m2
13:48 1.3 °C 0.4 °C 1028.5 hPa West 9.7 km/h 12.9 km/h 94% 0.0 mm 83 W/m2
13:53 1.2 °C 0.3 °C 1028.5 hPa North 1.4 km/h 9.7 km/h 94% 0.0 mm 72 W/m2
13:58 1.2 °C 0.3 °C 1028.1 hPa WNW 3.2 km/h 16.1 km/h 94% 0.0 mm 95 W/m2
14:03 1.2 °C 0.3 °C 1028.1 hPa Calm   4.8 km/h 94% 0.0 mm 86 W/m2
14:08 1.2 °C 0.3 °C 1028.1 hPa Calm   6.4 km/h 94% 0.0 mm 81 W/m2
14:13 1.2 °C 0.3 °C 1028.1 hPa West 4.7 km/h 6.4 km/h 94% 0.0 mm 69 W/m2
14:18 1.2 °C 0.3 °C 1028.1 hPa WNW 4.7 km/h 6.4 km/h 94% 0.0 mm 54 W/m2
14:23 1.2 °C 0.3 °C 1028.1 hPa NNW 3.2 km/h 6.4 km/h 94% 0.0 mm 69 W/m2
14:28 1.2 °C 0.3 °C 1028.1 hPa NW 1.4 km/h 6.4 km/h 94% 0.0 mm 69 W/m2
14:33 1.3 °C 0.4 °C 1028.1 hPa WNW 3.2 km/h 4.8 km/h 94% 0.0 mm 56 W/m2
14:38 1.3 °C 0.4 °C 1028.1 hPa Calm   1.6 km/h 94% 0.0 mm 49 W/m2
14:43 1.3 °C 0.4 °C 1027.8 hPa North 1.4 km/h 6.4 km/h 94% 0.0 mm 67 W/m2
14:48 1.3 °C 0.4 °C 1028.1 hPa ESE 1.4 km/h 6.4 km/h 94% 0.0 mm 76 W/m2
14:53 1.4 °C 0.5 °C 1028.1 hPa WNW 9.7 km/h 9.7 km/h 94% 0.0 mm 60 W/m2
14:58 1.4 °C 0.5 °C 1028.1 hPa WNW 4.7 km/h 6.4 km/h 94% 0.0 mm 60 W/m2
15:03 1.4 °C 0.5 °C 1027.8 hPa ESE 3.2 km/h 4.8 km/h 94% 0.0 mm 88 W/m2
15:08 1.4 °C 0.5 °C 1028.1 hPa NW 6.4 km/h 14.5 km/h 94% 0.0 mm 72 W/m2
15:13 1.4 °C 0.5 °C 1028.1 hPa WNW 1.4 km/h 6.4 km/h 94% 0.0 mm 56 W/m2
15:18 1.4 °C 0.5 °C 1028.1 hPa WNW 3.2 km/h 8 km/h 94% 0.0 mm 49 W/m2
15:23 1.4 °C 0.5 °C 1028.1 hPa NNE 4.7 km/h 8 km/h 94% 0.0 mm 39 W/m2
15:28 1.4 °C 0.5 °C 1028.1 hPa West 3.2 km/h 4.8 km/h 94% 0.0 mm 32 W/m2
15:33 1.4 °C 0.5 °C 1028.1 hPa Calm   4.8 km/h 94% 0.0 mm 39 W/m2
15:38 1.4 °C 0.5 °C 1028.1 hPa North 3.2 km/h 4.8 km/h 94% 0.0 mm 33 W/m2
15:43 1.4 °C 0.5 °C 1028.1 hPa NW 4.7 km/h 12.9 km/h 94% 0.0 mm 39 W/m2
15:48 1.4 °C 0.5 °C 1027.8 hPa WNW 19.5 km/h 19.3 km/h 94% 0.0 mm 44 W/m2
15:53 1.4 °C 0.5 °C 1027.8 hPa South 1.4 km/h 4.8 km/h 94% 0.0 mm 46 W/m2
15:58 1.4 °C 0.5 °C 1027.8 hPa NW 19.3 km/h 19.3 km/h 94% 0.0 mm 40 W/m2
16:03 1.4 °C 0.5 °C 1027.8 hPa WSW 1.4 km/h 6.4 km/h 94% 0.0 mm 32 W/m2
16:08 1.5 °C 0.6 °C 1027.8 hPa SE 1.4 km/h 14.5 km/h 94% 0.0 mm 28 W/m2
16:13 1.4 °C 0.5 °C 1028.1 hPa NE 1.4 km/h 3.2 km/h 94% 0.0 mm 21 W/m2
16:18 1.4 °C 0.5 °C 1028.1 hPa South 3.2 km/h 14.5 km/h 94% 0.0 mm 19 W/m2
16:23 1.4 °C 0.5 °C 1028.1 hPa WSW 1.4 km/h 12.9 km/h 94% 0.0 mm 19 W/m2
16:28 1.4 °C 0.5 °C 1027.8 hPa Calm   6.4 km/h 94% 0.0 mm 19 W/m2
16:33 1.4 °C 0.5 °C 1027.8 hPa NW 4.7 km/h 8 km/h 94% 0.0 mm 19 W/m2
16:38 1.4 °C 0.5 °C 1027.8 hPa NW 3.2 km/h 4.8 km/h 94% 0.0 mm 18 W/m2
16:43 1.5 °C 0.6 °C 1027.8 hPa NW 4.7 km/h 16.1 km/h 94% 0.0 mm 16 W/m2
16:48 1.5 °C 0.6 °C 1027.8 hPa NW 3.2 km/h 11.3 km/h 94% 0.0 mm 16 W/m2
16:53 1.5 °C 0.6 °C 1028.1 hPa WNW 7.9 km/h 16.1 km/h 94% 0.0 mm 12 W/m2
16:58 1.5 °C 0.6 °C 1028.1 hPa WNW 9.7 km/h 9.7 km/h 94% 0.0 mm 9 W/m2
17:03 1.5 °C 0.6 °C 1028.1 hPa WNW 3.2 km/h 12.9 km/h 94% 0.0 mm 7 W/m2
17:08 1.5 °C 0.6 °C 1028.1 hPa WNW 6.4 km/h 12.9 km/h 94% 0.0 mm 5 W/m2
17:13 1.4 °C 0.5 °C 1028.1 hPa West 4.7 km/h 12.9 km/h 94% 0.0 mm 0 W/m2
17:18 1.4 °C 0.5 °C 1028.1 hPa WNW 1.4 km/h 12.9 km/h 94% 0.0 mm 0 W/m2
17:23 1.4 °C 0.5 °C 1028.1 hPa West 4.7 km/h 14.5 km/h 94% 0.0 mm 0 W/m2
17:28 1.4 °C 0.5 °C 1028.1 hPa West 3.2 km/h 16.1 km/h 94% 0.0 mm 0 W/m2
17:33 1.4 °C 0.5 °C 1028.5 hPa NW 13 km/h 12.9 km/h 94% 0.0 mm 0 W/m2
17:38 1.4 °C 0.7 °C 1028.5 hPa NNW 4.7 km/h 14.5 km/h 95% 0.0 mm 0 W/m2
17:43 1.4 °C 0.7 °C 1028.5 hPa NW 3.2 km/h 9.7 km/h 95% 0.0 mm 0 W/m2
17:48 1.4 °C 0.7 °C 1028.1 hPa WSW 7.9 km/h 9.7 km/h 95% 0.0 mm 0 W/m2
17:53 1.4 °C 0.5 °C 1028.5 hPa NNW 3.2 km/h 14.5 km/h 94% 0.0 mm 0 W/m2
17:58 1.4 °C 0.7 °C 1028.5 hPa NW 3.2 km/h 12.9 km/h 95% 0.2 mm 0 W/m2
18:03 1.4 °C 0.5 °C 1028.5 hPa WNW 7.9 km/h 17.7 km/h 94% 0.2 mm 0 W/m2
18:08 1.3 °C 0.4 °C 1028.5 hPa NW 4.7 km/h 14.5 km/h 94% 0.2 mm 0 W/m2
18:13 1.4 °C 0.5 °C 1028.1 hPa NNW 6.4 km/h 17.7 km/h 94% 0.2 mm 0 W/m2
18:18 1.3 °C 0.6 °C 1028.5 hPa West 4.7 km/h 19.3 km/h 95% 0.2 mm 0 W/m2
18:23 1.3 °C 0.6 °C 1028.5 hPa WNW 6.4 km/h 17.7 km/h 95% 0.2 mm 0 W/m2
18:28 1.3 °C 0.6 °C 1028.5 hPa West 1.4 km/h 12.9 km/h 95% 0.2 mm 0 W/m2
18:33 1.3 °C 0.6 °C 1028.5 hPa NW 4.7 km/h 6.4 km/h 95% 0.2 mm 0 W/m2
18:38 1.3 °C 0.6 °C 1028.5 hPa WNW 6.4 km/h 11.3 km/h 95% 0.2 mm 0 W/m2
18:44 1.3 °C 0.6 °C 1028.5 hPa NW 7.9 km/h 11.3 km/h 95% 0.2 mm 0 W/m2
18:49 1.3 °C 0.6 °C 1028.5 hPa WNW 6.4 km/h 16.1 km/h 95% 0.2 mm 0 W/m2
18:54 1.3 °C 0.6 °C 1028.5 hPa West 3.2 km/h 14.5 km/h 95% 0.2 mm 0 W/m2
18:59 1.3 °C 0.6 °C 1028.1 hPa NW 7.9 km/h 14.5 km/h 95% 0.0 mm 0 W/m2
19:04 1.3 °C 0.6 °C 1028.1 hPa NW 1.4 km/h 6.4 km/h 95% 0.0 mm 0 W/m2
19:09 1.3 °C 0.6 °C 1028.1 hPa WSW 7.9 km/h 12.9 km/h 95% 0.0 mm 0 W/m2
19:14 1.3 °C 0.6 °C 1028.1 hPa WNW 6.4 km/h 11.3 km/h 95% 0.0 mm 0 W/m2
19:19 1.3 °C 0.6 °C 1028.1 hPa NW 4.7 km/h 9.7 km/h 95% 0.0 mm 0 W/m2
19:24 1.3 °C 0.6 °C 1028.1 hPa West 1.4 km/h 6.4 km/h 95% 0.0 mm 0 W/m2
19:29 1.3 °C 0.6 °C 1028.5 hPa NW 11.1 km/h 14.5 km/h 95% 0.0 mm 0 W/m2
19:34 1.3 °C 0.6 °C 1028.5 hPa WNW 16.3 km/h 16.1 km/h 95% 0.0 mm 0 W/m2
19:39 1.3 °C 0.6 °C 1028.5 hPa West 11.1 km/h 16.1 km/h 95% 0.0 mm 0 W/m2
19:44 1.3 °C 0.6 °C 1028.5 hPa WNW 7.9 km/h 11.3 km/h 95% 0.0 mm 0 W/m2
19:49 1.3 °C 0.6 °C 1028.5 hPa WNW 11.1 km/h 11.3 km/h 95% 0.0 mm 0 W/m2
19:54 1.3 °C 0.6 °C 1028.5 hPa West 6.4 km/h 19.3 km/h 95% 0.0 mm 0 W/m2
19:59 1.4 °C 0.7 °C 1028.5 hPa WNW 4.7 km/h 11.3 km/h 95% 0.0 mm 0 W/m2
20:04 1.4 °C 0.7 °C 1028.8 hPa NW 6.4 km/h 17.7 km/h 95% 0.0 mm 0 W/m2
20:09 1.4 °C 0.7 °C 1028.8 hPa WNW 16.3 km/h 19.3 km/h 95% 0.0 mm 0 W/m2
20:14 1.4 °C 0.7 °C 1028.8 hPa WSW 1.4 km/h 16.1 km/h 95% 0.0 mm 0 W/m2
20:19 1.4 °C 0.7 °C 1028.8 hPa WNW 4.7 km/h 11.3 km/h 95% 0.0 mm 0 W/m2
20:24 1.4 °C 0.7 °C 1029.1 hPa West 11.1 km/h 14.5 km/h 95% 0.0 mm 0 W/m2
20:29 1.4 °C 0.7 °C 1029.1 hPa NW 3.2 km/h 11.3 km/h 95% 0.0 mm 0 W/m2
20:34 1.4 °C 0.7 °C 1029.5 hPa West 9.7 km/h 17.7 km/h 95% 0.0 mm 0 W/m2
20:39 1.4 °C 0.7 °C 1029.5 hPa West 3.2 km/h 9.7 km/h 95% 0.0 mm 0 W/m2
20:44 1.5 °C 0.8 °C 1029.1 hPa WSW 3.2 km/h 20.9 km/h 95% 0.0 mm 0 W/m2
20:49 1.5 °C 0.8 °C 1029.5 hPa West 4.7 km/h 11.3 km/h 95% 0.0 mm 0 W/m2
20:54 1.5 °C 0.8 °C 1029.5 hPa NW 4.7 km/h 20.9 km/h 95% 0.0 mm 0 W/m2
20:59 1.5 °C 0.8 °C 1029.5 hPa WSW 7.9 km/h 14.5 km/h 95% 0.0 mm 0 W/m2
21:04 1.6 °C 0.9 °C 1029.5 hPa WSW 1.4 km/h 9.7 km/h 95% 0.0 mm 0 W/m2
21:09 1.6 °C 0.9 °C 1029.5 hPa West 3.2 km/h 6.4 km/h 95% 0.0 mm 0 W/m2
21:14 1.6 °C 0.9 °C 1029.5 hPa NW 4.7 km/h 4.8 km/h 95% 0.0 mm 0 W/m2
21:19 1.6 °C 0.9 °C 1029.5 hPa West 9.7 km/h 11.3 km/h 95% 0.0 mm 0 W/m2
21:24 1.7 °C 1 °C 1029.8 hPa WNW 7.9 km/h 9.7 km/h 95% 0.0 mm 0 W/m2
21:29 1.7 °C 1 °C 1029.8 hPa WNW 1.4 km/h 3.2 km/h 95% 0.0 mm 0 W/m2
21:34 1.7 °C 1 °C 1029.8 hPa ESE 1.4 km/h 3.2 km/h 95% 0.0 mm 0 W/m2
21:39 1.7 °C 1 °C 1029.8 hPa WSW 6.4 km/h 9.7 km/h 95% 0.0 mm 0 W/m2
21:44 1.7 °C 1 °C 1030.1 hPa Calm   9.7 km/h 95% 0.0 mm 0 W/m2
21:49 1.7 °C 1 °C 1030.1 hPa Calm   3.2 km/h 95% 0.0 mm 0 W/m2
21:54 1.8 °C 1.1 °C 1030.1 hPa NW 1.4 km/h 9.7 km/h 95% 0.0 mm 0 W/m2
21:59 1.8 °C 1.1 °C 1030.1 hPa NW 3.2 km/h 6.4 km/h 95% 0.0 mm 0 W/m2
22:04 1.8 °C 1.1 °C 1030.1 hPa West 1.4 km/h 8 km/h 95% 0.0 mm 0 W/m2
22:09 1.8 °C 1.1 °C 1030.1 hPa West 3.2 km/h 11.3 km/h 95% 0.0 mm 0 W/m2
22:14 1.8 °C 1.1 °C 1030.1 hPa WSW 4.7 km/h 9.7 km/h 95% 0.0 mm 0 W/m2
22:19 1.8 °C 1.1 °C 1030.1 hPa Calm   6.4 km/h 95% 0.0 mm 0 W/m2
22:24 1.8 °C 1.1 °C 1030.1 hPa West 4.7 km/h 14.5 km/h 95% 0.0 mm 0 W/m2
22:29 1.8 °C 1.1 °C 1030.5 hPa NW 3.2 km/h 9.7 km/h 95% 0.0 mm 0 W/m2
22:34 1.8 °C 1.1 °C 1030.1 hPa WSW 3.2 km/h 14.5 km/h 95% 0.0 mm 0 W/m2
22:39 1.8 °C 1.1 °C 1030.1 hPa WNW 4.7 km/h 9.7 km/h 95% 0.0 mm 0 W/m2
22:44 1.8 °C 1.1 °C 1030.5 hPa WNW 3.2 km/h 16.1 km/h 95% 0.0 mm 0 W/m2
22:49 1.9 °C 1.2 °C 1030.5 hPa West 9.7 km/h 17.7 km/h 95% 0.0 mm 0 W/m2
22:54 1.9 °C 1.2 °C 1030.5 hPa SW 7.9 km/h 20.9 km/h 95% 0.0 mm 0 W/m2
22:59 1.9 °C 1.2 °C 1030.5 hPa SW 3.2 km/h 9.7 km/h 95% 0.0 mm 0 W/m2
23:04 1.9 °C 1.2 °C 1030.5 hPa West 6.4 km/h 20.9 km/h 95% 0.0 mm 0 W/m2
23:09 1.9 °C 1.2 °C 1030.5 hPa WSW 9.7 km/h 20.9 km/h 95% 0.0 mm 0 W/m2
23:14 2.1 °C 1.4 °C 1030.5 hPa WNW 11.1 km/h 14.5 km/h 95% 0.0 mm 0 W/m2
23:19 2.1 °C 1.4 °C 1030.5 hPa SW 9.7 km/h 17.7 km/h 95% 0.0 mm 0 W/m2
23:24 2.1 °C 1.4 °C 1030.8 hPa West 11.1 km/h 22.5 km/h 95% 0.0 mm 0 W/m2
23:29 2.1 °C 1.4 °C 1030.8 hPa SW 11.1 km/h 20.9 km/h 95% 0.0 mm 0 W/m2
23:34 2.1 °C 1.4 °C 1030.8 hPa West 6.4 km/h 14.5 km/h 95% 0.0 mm 0 W/m2
23:39 2.1 °C 1.4 °C 1030.8 hPa West 9.7 km/h 12.9 km/h 95% 0.0 mm 0 W/m2
23:44 2.1 °C 1.4 °C 1030.8 hPa West 9.7 km/h 14.5 km/h 95% 0.0 mm 0 W/m2
23:49 2.1 °C 1.4 °C 1031.2 hPa WNW 6.4 km/h 14.5 km/h 95% 0.0 mm 0 W/m2
23:54 2.1 °C 1.4 °C 1031.2 hPa WNW 4.7 km/h 16.1 km/h 95% 0.0 mm 0 W/m2
23:59 2.1 °C 1.4 °C 1031.2 hPa WSW 4.7 km/h 17.7 km/h 95% 0.0 mm 0 W/m2
Juneau County Weather
Compliments of Weather Underground - 4 mb